Regional Weather Roundup
Issued by NWS

Home | Current Version | Previous Version | Text Only | Print | Product List | Glossary Off
Versions: 1 2 3 4 5 6 7 8 9 10 11 12 13 14 15 16 17 18 19 20 21 22 23 24 25 26 27 28 29 30 31 32 33 34 35 36 37 38 39 40 41 42 43 44 45 46 47 48 49 50

000
ASUS43 KMPX 231201
RWRMN
WEATHER ROUNDUP FOR MINNESOTA
NATIONAL WEATHER SERVICE TWIN CITIES/CHANHASSEN MN
700 AM CDT SAT MAY 23 2015


NOTE: "FAIR" INDICATES FEW OR NO CLOUDS BELOW 12,000 FEET WITH NO
SIGNIFICANT WEATHER AND/OR OBSTRUCTIONS TO VISIBILITY. N/A MEANS
CURRENT SKY AND/OR WEATHER CONDITIONS ARE NOT AVAILABLE.

MNZ060>063-068>070-231300-
   Twin Cities Metro

CITY           SKY/WX    TMP DP  RH WIND       PRES   REMARKS
TWIN CITIES    PTSUNNY   56  41  57 S3        30.25R
6HR MIN TEMP:  51; 6HR MAX TEMP:  60;

ST PAUL        MOSUNNY   53  48  83 CALM      30.26R
CRYSTAL        MOSUNNY   54  46  74 CALM      30.23R
BLAINE         MOSUNNY   52  48  87 CALM      30.24R
LAKEVILLE      MOSUNNY   55  45  67 NW7       30.25R
EDEN PRAIRIE   MOSUNNY   54  45  71 CALM      30.23S
6HR MIN TEMP:  48; 6HR MAX TEMP:  59;

SOUTH ST PAUL  MOSUNNY   53  46  78 CALM      30.25R
LAKE ELMO      FAIR      48  45  87 CALM      30.26R
$$
MNZ001>005-007-008-013>017-022>024-027-028-231300-
   Northwest Minnesota

CITY           SKY/WX    TMP DP  RH WIND       PRES   REMARKS
BEMIDJI        SUNNY     46  42  85 CALM      30.19S
HALLOCK        SUNNY     46  43  87 S3        30.14R
ROSEAU         MOSUNNY   57  41  54 SW7       30.15R
WARROAD        MOSUNNY   55  41  58 SW7       30.15R
THIEF RVR FALL SUNNY     52  39  62 S5        30.17S
CROOKSTON      SUNNY     52  43  71 S6        30.17S
FOSSTON        SUNNY     52  39  62 S7        30.19S
DETROIT LAKES  SUNNY     50  45  81 SW3       30.22R
MOORHEAD       SUNNY     52  45  76 S3        30.21R
PARK RAPIDS    SUNNY     47  42  83 CALM      30.21R
MAHNOMEN       FAIR      50  43  76 S8        30.19R
$$
MNZ006-009>011-018-025>026-231300-
   North Central Minnesota

CITY           SKY/WX    TMP DP  RH WIND       PRES   REMARKS
BAUDETTE       SUNNY     55  39  54 SW8       30.15R
FLAG ISLAND    PTSUNNY   59  39  47 CALM      30.12S
INTL FALLS     SUNNY     51  41  68 SW7       30.15R
6HR MIN TEMP:  45; 6HR MAX TEMP:  53;

WASKISH        SUNNY     55  43  62 CALM      30.18S
BIG FORK       SUNNY     48  45  87 CALM      30.20S
LONGVILLE      SUNNY     41  41 100 CALM      30.21R
GRAND RAPIDS   SUNNY     48  37  66 S3        30.22R
CRANE LAKE     SUNNY     41  39  93 CALM      30.19R
COOK           SUNNY     54  39  58 SW5       30.21R
WALKER         FAIR      52  37  56 SW3       30.20R
$$
MNZ012-019>021-037-231300-
   Northeast Minnesota

CITY           SKY/WX    TMP DP  RH WIND       PRES   REMARKS
DULUTH         SUNNY     59  36  42 W9        30.22S
6HR MIN TEMP:  53; 6HR MAX TEMP:  59;

ELY            SUNNY     54  37  54 SW6       30.19R
HIBBING        SUNNY     44  39  82 CALM      30.21R
EVELETH        SUNNY     45  43  93 CALM      30.22S
DULUTH HARBOR  SUNNY     54  41  62 SW8       30.23R
TWO HARBORS    SUNNY     59  43  55 W5        30.20S
SILVER BAY     SUNNY     45  39  81 CALM      30.19R
GRAND MARAIS     N/A     41  35  79 W10       30.16R
G MARAIS ARPRT MOSUNNY   57  34  41 W10G18    30.18R
$$
MNZ029>031-032-039>041-046>048-054>057-064-231300-
   West Central Minnesota

CITY           SKY/WX    TMP DP  RH WIND       PRES   REMARKS
FERGUS FALLS   SUNNY     52  45  76 S3        30.24R
WHEATON        SUNNY     48  43  81 SE3       30.24S
MORRIS         MOSUNNY   48  45  87 CALM      30.23R
ALEXANDRIA     SUNNY     50  46  86 SW7       30.25R
ELBOW LAKE     FAIR      49  46  89 S5        30.24R
WADENA         SUNNY     52  43  71 W6        30.22R
GLENWOOD       MOSUNNY   50  46  87 SW3       30.25R
APPLETON         N/A     52  48  87 S3        30.23R
BENSON         MOSUNNY   50  46  87 CALM      30.24R
ORTONVILLE     MOSUNNY   52  45  76 CALM      30.23R
MADISON        PTSUNNY   54  45  71 S5        30.24R
WILLMAR        FAIR      54  48  82 CALM      30.27R
$$
MNZ033>034-036-042>043-049>051-058-059-231300-
   Central Minnesota

CITY           SKY/WX    TMP DP  RH WIND       PRES   REMARKS
ST CLOUD       SUNNY     48  45  89 CALM      30.23R
6HR MIN TEMP:  41; 6HR MAX TEMP:  48;

SAUK CENTRE    FAIR      48  45  87 CALM      30.24R
PAYNESVILLE    MOSUNNY   47  46  94 S7        30.26R
AITKIN         SUNNY     46  39  76 CALM      30.21S
PINE RIVER     SUNNY     45  41  87 CALM      30.24S
BRAINERD       SUNNY     46  44  93 CALM      30.23R
STAPLES        SUNNY     46  43  87 CALM      30.22S
LONG PRAIRIE   FAIR      48  43  81 CALM      30.23S
LITTLE FALLS   SUNNY     45  41  87 CALM      30.23S
LITCHFIELD     PTSUNNY   55  48  76 CALM      30.26R
BUFFALO        MOSUNNY   51  45  78 CALM      30.25R
MAPLE LAKE     SUNNY     52  47  81 CALM      30.25R
$$
MNZ037-044-045-052-053-231300-
   East Central Minnesota

CITY           SKY/WX    TMP DP  RH WIND       PRES   REMARKS
PRINCETON      SUNNY     46  45  93 CALM      30.24R
MORA           SUNNY     43  41  93 CALM      30.25S
CAMBRIDGE      SUNNY     48  41  76 CALM      30.22R
RUSH CITY      SUNNY     45  43  93 CALM      30.24S
MOOSE LAKE     SUNNY     43  43 100 CALM      30.22S
HINCKLEY       FAIR      43  41  93 CALM      30.25R
CLOQUET        SUNNY     57  36  44 SW6       30.23S
MCGREGOR       SUNNY     46  43  87 CALM      30.23S
$$
MNZ071>073-080-081-089-090-097-098-231300-
   Southwest Minnesota

CITY           SKY/WX    TMP DP  RH WIND       PRES   REMARKS
MONTEVIDEO     PTSUNNY   54  48  82 S3        30.25S
GRANITE FALLS  DRIZZLE   53  46  75 CALM      30.26S
CANBY          CLOUDY    52  47  86 CALM      30.25S
MARSHALL       CLOUDY    54  46  76 E3        30.23F
REDWOOD FALLS  CLOUDY    53  47  79 E3        30.25S
OLIVIA         CLOUDY    52  45  76 CALM      30.25S
PIPESTONE      CLOUDY    55  46  71 SE6       30.22R
WINDOM         CLOUDY    55  48  76 CALM      30.24R
WORTHINGTON    CLOUDY    55  46  71 SE6       30.23F
JACKSON        CLOUDY    55  52  88 E6        30.24S
TRACY          LGT RAIN  55  49  81 E3        30.24S
SLAYTON        LGT RAIN  53  50  87 CALM      30.24S
$$
MNZ065>067-074>077-082>085-091>093-231300-
   South Central Minnesota

CITY           SKY/WX    TMP DP  RH WIND       PRES   REMARKS
MANKATO        CLOUDY    55  45  67 W6        30.27R
NEW ULM        CLOUDY    55  46  71 CALM      30.26S
ST JAMES       CLOUDY    55  48  76 NE7       30.25F
FAIRMONT       CLOUDY    55  45  67 E5        30.24R
GLENCOE        PTSUNNY   55  47  75 SW3       30.25R
FARIBAULT      PTSUNNY   54  46  76 CALM      30.25S
OWATONNA       PTSUNNY   55  45  67 CALM      30.25S
WASECA         CLOUDY    54  45  71 N3        30.27R
ALBERT LEA     CLOUDY    57  46  67 CALM      30.26R
$$
MNZ078>079-086>088-094>096-231300-
   Southeast Minnesota

CITY           SKY/WX    TMP DP  RH WIND       PRES   REMARKS
ROCHESTER      PTSUNNY   55  43  63 W9        30.27R
6HR MIN TEMP:  49; 6HR MAX TEMP:  56;

RED WING       MOSUNNY   52  48  87 CALM      30.25R
STANTON        MOSUNNY   54  44  69 CALM      30.25R
DODGE CENTER   MOSUNNY   57  45  62 NW9       30.26S
WINONA         MOSUNNY   50  46  87 CALM      30.27R
AUSTIN         CLOUDY    55  45  67 CALM      30.26S
PRESTON        PTSUNNY   53  44  73 S5        30.28R
$$
ABBREVIATIONS USED IN REMARKS
   TC - TEMPERATURES IN CELSIUS
  WCI - WIND CHILL INDEX
   HX - HEAT INDEX
  VSB - VISIBILITY
$$



USA.gov is the U.S. government's official web portal to all federal, state and local government web resources and services.